カタログに戻る

SNUSat 2

SNUSAT-2

運用中アマチュア無線SSO
NORAD 43782·PAYLOAD·🇰🇷 South Korea

打ち上げ Dec 3, 2018 から Vandenberg Space Force Base

Loading…

次のパス (今後24時間)

TLE

最新Source: AMSAT

元期: Sep 14, 2026, 09:23 UTC

1 43782U 18099AA  26257.39122103  .00005573  00000-0  23954-3 0  9990
2 43782  97.3966 309.4360 0009437 352.4394   7.6699 15.23025775426606

AllMySatでSNUSat 2をリアルタイム追跡

Download on the App Store